Regional Weather Roundup
Issued by NWS Northern Indiana

Home | Current Version | Previous Version | Graphics & Text | Print | Product List | Glossary On
Versions: 1 2 3 4 5 6 7 8 9 10 11 12 13 14 15 16 17 18 19 20 21 22 23 24 25 26 27 28 29 30 31 32 33 34 35 36 37 38 39 40 41 42 43 44 45 46 47 48 49 50
000
ASUS43 KIWX 280810
RWRIWX

KIWX WEATHER ROUNDUP
NATIONAL WEATHER SERVICE NORTHERN INDIANA
400 AM EDT THU MAY 28 2015

NOTE: "FAIR" INDICATES FEW OR NO CLOUDS BELOW 12,000 FEET WITH NO
SIGNIFICANT WEATHER AND/OR OBSTRUCTIONS TO VISIBILITY.

* THESE STATIONS ARE NOT UNDER NWS QUALITY CONTROL. THEY ALSO MAY NOT
  REPORT WEATHER SUCH AS PRECIPITATION OR FOG.

INZ001>027-280900-
NORTHERN INDIANA

CITY           SKY/WX    TMP DP  RH WIND       PRES   REMARKS
GARY*          CLEAR     57  57  99 CALM      30.17F
VALPARAISO     CLEAR     55  52  89 CALM      30.19R
MICHIGAN CITY* CLEAR     52  52 100 CALM      30.18S
LAPORTE*       CLEAR     55  55 100 CALM      30.19S
KNOX*          CLEAR     54  54 100 CALM      30.18S
SOUTH BEND     CLEAR     54  51  90 CALM      30.19R
GOSHEN         CLEAR     52  50  93 S7        30.19R FOG
MONTICELLO*    CLEAR     55  54  99 CALM      30.17S
LOGANSPORT*    CLEAR     54  50  87 E3        30.18S
ROCHESTER*     CLEAR     55  55 100 CALM      30.18S
WARSAW*        CLEAR     54  54 100 CALM      30.19R FOG
ANGOLA*        CLEAR     52  52 100 CALM      30.18R
FORT WAYNE     PTCLDY    58  56  93 NW5       30.18S
HUNTINGTON*    CLEAR     54  53  96 CALM      30.17S
PERU/GRISSOM   CLEAR     55  54  97 CALM      30.17R
MARION*        CLEAR     58  55  89 CALM      30.18R

$$
INZ028>050-280900-
CENTRAL INDIANA

CITY           SKY/WX    TMP DP  RH WIND       PRES   REMARKS
LAFAYETTE      CLEAR     54  53  97 CALM      30.17S
KOKOMO*        CLEAR     55  54  94 CALM      30.18R
MUNCIE*        PTCLDY    61  58  90 CALM      30.17R
INDIANAPOLIS   PTCLDY    63  57  81 N3        30.15S

$$
MIZ043>046-050>051-056>058-064>065-071>073-077>080-280900-
SOUTHWEST LOWER MICHIGAN

CITY           SKY/WX    TMP DP  RH WIND       PRES   REMARKS
BATTLE CREEK   CLEAR     55  53  93 CALM      30.18R
BENTON HARBOR  CLEAR     52  51  97 CALM      30.17R FOG
HOLLAND        CLEAR     54  52  93 CALM      30.17R
GRAND RAPIDS   CLEAR     54  53  97 S5        30.17R
KALAMAZOO      CLEAR     54  53  97 CALM      30.18R FOG

$$
OHZ001>008-015>018-024>025-280900-
NORTHWEST OHIO

CITY           SKY/WX    TMP DP  RH WIND       PRES   REMARKS
DEFIANCE       CLEAR     58  55  90 NW3       30.17S
FINDLAY        PTCLDY    62  60  93 NW5       30.15S FOG
TOLEDO EXPRESS CLEAR     57  55  93 CALM      30.16R
TOLEDO METCALF CLEAR     60  56  86 CALM      30.17R
LIMA           PTCLDY    59  58  96 NW3       30.16S FOG

$$
AND FOR LAKE MICHIGAN COASTAL AND OPEN LAKE BUOY OBSERVATIONS

STATION/POSITION TEMP    WIND        PRES    VSBY  WAVE
                 AIR SEA DIR/SP/G                  HT/PER
                 (F)     (DEG/KT/KT) (MB)    (MI)  (FT/S)
CALUMET HARBOR    62     200/  2/  5   N/A
MICHIGAN CITY     60     140/  2/  3   N/A
BURNS HARBOR      61     180/  2/  6 1022.4S
SAINT JOSEPH      57      CALM  /  3 1022.7R
SOUTH LAKE BUOY   43 38  210/  8/  8 1021.6R         0
4 MI NW BRIDGMAN  56 55  210/  4/  4   N/A           0
MICHIGAN CITY     55 53  240/  2/  4   N/A           0

$$
&&



USA.gov is the U.S. government's official web portal to all federal, state and local government web resources and services.